Home > Weather > Stellenbosch > Past weeks

Flag for South Africa Past Weather in Stellenbosch, South Africa — Yesterday and Last 2 Weeks

Now
59 °F

Scattered clouds.


Feels Like: 57 °F
Forecast: 50 / 62 °F
Wind: 9 mph from Northeast

Location: Cape Town International Airport

Current Time: Jul 28, 2016 at 10:51:39 AM

Latest Report: Jul 28, 2016 at 10:00 AM


Visibility: N/A

Pressure: 29.92 "Hg

Humidity: 88%

Dew Point: 55 °F

Location of StellenboschLocation

Past Weather in Stellenbosch — Graph

°F

Stellenbosch Temperature Yesterday

Maximum temperature yesterday: 63 °F (at 2:00 PM)
Minimum temperature yesterday: 46 °F (at 8:00 AM)
Average temperature yesterday: 54 °F

High & Low Weather Summary for the Past Weeks

 TemperatureHumidityPressure
High81 °F (Jul 13, 2:00 PM)94% (Jul 14, 3:00 AM)30.42 "Hg (Jul 14, 3:00 AM)
Low36 °F (Jul 25, 7:00 AM)28% (Jul 17, 2:00 PM)29.89 "Hg (Jul 26, 3:00 PM)
Average54 °F77%30.15 "Hg
* Reported Jul 13 9:00 AM — Jul 28 9:00 AM, Stellenbosch, Weather by CustomWeather, © 2016

Note: Actual official high and low records may vary slightly from our data, if they occured in-between our weather recording intervals... More about our weather records

Advertising

Stellenbosch Weather History for the Previous 24 Hours

Scroll right to see more
 ConditionsComfort  
Time TempWeatherWind HumidityBarometerVisibility
9:00 AM
Thu, Jul 28
55 °FScattered clouds.7 mph94%29.92 "HgN/A
8:00 AM54 °FPartly sunny.8 mph94%29.92 "HgN/A
7:00 AM54 °FMostly cloudy.13 mph88%29.89 "HgN/A
6:00 AM54 °FLight rain. Mostly cloudy.13 mph88%29.89 "Hg4 mi
5:00 AM52 °FLight rain. Mostly cloudy.16 mph94%29.89 "Hg4 mi
4:00 AM52 °FLight rain. Partly cloudy.17 mph88%29.89 "Hg4 mi
3:00 AM52 °FLight rain. Passing clouds.15 mph82%29.92 "Hg5 mi
2:00 AM54 °FPassing clouds.15 mph77%29.92 "HgN/A
1:00 AM54 °FPassing clouds.13 mph77%29.92 "HgN/A
12:00 AM54 °FPassing clouds.10 mph82%29.92 "HgN/A
11:00 PM
Wed, Jul 27
55 °FPassing clouds.9 mph82%29.95 "HgN/A
10:00 PM54 °FPassing clouds.8 mph88%29.95 "HgN/A
9:00 PM54 °FPassing clouds.7 mph88%29.95 "HgN/A
8:00 PM55 °FClear.9 mph82%29.92 "Hg10 mi
7:00 PM55 °FClear.10 mph77%29.92 "Hg10 mi
6:00 PM55 °FClear.10 mph77%29.92 "Hg10 mi
5:00 PM57 °FSunny.13 mph67%29.89 "Hg10 mi
4:00 PM61 °FPassing clouds.13 mph59%29.89 "HgN/A
3:00 PM61 °FPassing clouds.12 mph55%29.89 "HgN/A
2:00 PM63 °FPassing clouds.8 mph56%29.92 "HgN/A
1:00 PM61 °FPassing clouds.7 mph59%29.92 "HgN/A
12:00 PM59 °FPassing clouds.7 mph68%29.92 "HgN/A
11:00 AM57 °FSunny.5 mph77%29.95 "Hg10 mi
10:00 AM55 °FSunny.8 mph82%29.95 "Hg10 mi
Weather by CustomWeather, © 2016

See weather overviewHow to use our weather pages